Location: Barrio Las Umbrías
(40.4173°N, 4.8685°W)
Time: 12:26:56
(UTC+00:00)

ASTEX 1 - Pass Details

Date: 17 August 2022
Orbit: 719 x 743 km, 92.7° (Epoch: 27 September)

Event Time Altitude Azimuth Distance (km) Brightness Sun altitude
Rises 20:21:01 0° 11° (N) 3,144 6.9 -12.4°
Reaches altitude 10° 20:23:23 10° 16° (NNE) 2,217 6.1 -12.8°
Maximum altitude 20:28:09 51° 93° (E) 902 3.5 -13.6°
Enters shadow 20:32:51 10° 169° (S) 2,188 5.5 -14.4°
